contact:dominique.lefevre@mio.osupytheas.fr, maurice.libes@osupytheas.fr, didier.mallarino@osupytheas.fr
Project:EMSO http://www.emso-fr.org/EMSO-France
Depth: 2436.0 m
Title:EMSO Ligure Ouest : Data MII capteur MICROCAT
DateTime_Computer,Latitude,Longitude,Temperature,Conductivity,Pressure,DateTime_Instrument
DateTime_Computer,Latitude,Longitude,degC,S m-1,dbar,DateTime_Instrument
2023-04-22T00:01:44Z,42.805,6.029,13.3041,4.60137,2470.693,2023-4-22T02:04:45Z
2023-04-22T00:04:47Z,42.805,6.029,13.3048,4.60148,2470.707,2023-4-22T02:07:48Z
2023-04-22T00:07:50Z,42.805,6.029,13.3034,4.60140,2470.693,2023-4-22T02:10:51Z
2023-04-22T00:10:54Z,42.805,6.029,13.3041,4.60130,2470.646,2023-4-22T02:13:54Z
2023-04-22T00:13:57Z,42.805,6.029,13.3043,4.60127,2470.693,2023-4-22T02:16:57Z
2023-04-22T00:17:00Z,42.805,6.029,13.3038,4.60142,2470.707,2023-4-22T02:20:00Z
2023-04-22T00:20:03Z,42.805,6.029,13.3039,4.60127,2470.646,2023-4-22T02:23:03Z
2023-04-22T00:23:06Z,42.805,6.029,13.3036,4.60140,2470.67,2023-4-22T02:26:06Z
2023-04-22T00:26:09Z,42.805,6.029,13.3041,4.60146,2470.707,2023-4-22T02:29:09Z
2023-04-22T00:29:12Z,42.805,6.029,13.3049,4.60137,2470.67,2023-4-22T02:32:12Z
2023-04-22T00:32:15Z,42.805,6.029,13.3046,4.60140,2470.67,2023-4-22T02:35:16Z
2023-04-22T00:35:18Z,42.805,6.029,13.3045,4.60127,2470.67,2023-4-22T02:38:19Z
2023-04-22T00:38:21Z,42.805,6.029,13.3048,4.60163,2470.693,2023-4-22T02:41:22Z
2023-04-22T00:41:24Z,42.805,6.029,13.3043,4.60140,2470.646,2023-4-22T02:44:25Z
2023-04-22T00:44:27Z,42.805,6.029,13.3033,4.60146,2470.661,2023-4-22T02:47:28Z
2023-04-22T00:47:31Z,42.805,6.029,13.3051,4.60140,2470.646,2023-4-22T02:50:31Z
2023-04-22T00:50:34Z,42.805,6.029,13.3054,4.60127,2470.661,2023-4-22T02:53:34Z
2023-04-22T00:53:37Z,42.805,6.029,13.3038,4.60152,2470.646,2023-4-22T02:56:37Z
2023-04-22T00:56:40Z,42.805,6.029,13.3043,4.60142,2470.646,2023-4-22T02:59:40Z
2023-04-22T00:59:43Z,42.805,6.029,13.3042,4.60125,2470.67,2023-4-22T03:02:43Z
2023-04-22T01:02:46Z,42.805,6.029,13.3040,4.60125,2470.624,2023-4-22T03:05:46Z
2023-04-22T01:05:49Z,42.805,6.029,13.3046,4.60135,2470.624,2023-4-22T03:08:49Z
2023-04-22T01:08:52Z,42.805,6.029,13.3033,4.60125,2470.661,2023-4-22T03:11:53Z
2023-04-22T01:11:55Z,42.805,6.029,13.3041,4.60127,2470.67,2023-4-22T03:14:56Z
2023-04-22T01:14:58Z,42.805,6.029,13.3042,4.60150,2470.624,2023-4-22T03:17:59Z
2023-04-22T01:18:01Z,42.805,6.029,13.3039,4.60139,2470.661,2023-4-22T03:21:02Z
2023-04-22T01:21:04Z,42.805,6.029,13.3041,4.60106,2470.661,2023-4-22T03:24:05Z
2023-04-22T01:24:08Z,42.805,6.029,13.3038,4.60110,2470.684,2023-4-22T03:27:08Z
2023-04-22T01:27:11Z,42.805,6.029,13.3032,4.60112,2470.624,2023-4-22T03:30:11Z
2023-04-22T01:30:14Z,42.805,6.029,13.3036,4.60127,2470.624,2023-4-22T03:33:14Z
2023-04-22T01:33:17Z,42.805,6.029,13.3039,4.60134,2470.624,2023-4-22T03:36:17Z
2023-04-22T01:36:20Z,42.805,6.029,13.3038,4.60125,2470.6,2023-4-22T03:39:20Z
2023-04-22T01:39:23Z,42.805,6.029,13.3032,4.60139,2470.646,2023-4-22T03:42:23Z
2023-04-22T01:42:26Z,42.805,6.029,13.3032,4.60127,2470.646,2023-4-22T03:45:26Z
2023-04-22T01:45:29Z,42.805,6.029,13.3041,4.60139,2470.646,2023-4-22T03:48:30Z
2023-04-22T01:48:32Z,42.805,6.029,13.3034,4.60122,2470.624,2023-4-22T03:51:33Z
2023-04-22T01:51:35Z,42.805,6.029,13.3034,4.60147,2470.637,2023-4-22T03:54:36Z
2023-04-22T01:54:38Z,42.805,6.029,13.3043,4.60137,2470.624,2023-4-22T03:57:39Z
2023-04-22T01:57:41Z,42.805,6.029,13.3036,4.60114,2470.624,2023-4-22T04:00:42Z
2023-04-22T02:00:45Z,42.805,6.029,13.3056,4.60119,2470.624,2023-4-22T04:03:45Z
2023-04-22T02:03:48Z,42.805,6.029,13.3039,4.60126,2470.637,2023-4-22T04:06:48Z
2023-04-22T02:06:51Z,42.805,6.029,13.3046,4.60117,2470.661,2023-4-22T04:09:51Z
2023-04-22T02:09:54Z,42.805,6.029,13.3041,4.60116,2470.614,2023-4-22T04:12:54Z
2023-04-22T02:12:57Z,42.805,6.029,13.3041,4.60114,2470.646,2023-4-22T04:15:57Z
2023-04-22T02:16:00Z,42.805,6.029,13.3034,4.60129,2470.637,2023-4-22T04:19:00Z
2023-04-22T02:19:03Z,42.805,6.029,13.3037,4.60142,2470.624,2023-4-22T04:22:03Z
2023-04-22T02:22:06Z,42.805,6.029,13.3045,4.60131,2470.646,2023-4-22T04:25:07Z
2023-04-22T02:25:09Z,42.805,6.029,13.3035,4.60130,2470.624,2023-4-22T04:28:10Z
2023-04-22T02:28:12Z,42.805,6.029,13.3039,4.60110,2470.661,2023-4-22T04:31:13Z
2023-04-22T02:31:15Z,42.805,6.029,13.3038,4.60110,2470.614,2023-4-22T04:34:16Z
2023-04-22T02:34:18Z,42.805,6.029,13.3034,4.60116,2470.6,2023-4-22T04:37:19Z
2023-04-22T02:37:21Z,42.805,6.029,13.3041,4.60111,2470.6,2023-4-22T04:40:22Z
2023-04-22T02:40:25Z,42.805,6.029,13.3039,4.60131,2470.614,2023-4-22T04:43:25Z
2023-04-22T02:43:28Z,42.805,6.029,13.3037,4.60110,2470.6,2023-4-22T04:46:28Z
2023-04-22T02:46:31Z,42.805,6.029,13.3047,4.60126,2470.624,2023-4-22T04:49:31Z
2023-04-22T02:49:34Z,42.805,6.029,13.3028,4.60131,2470.614,2023-4-22T04:52:34Z
2023-04-22T02:52:37Z,42.805,6.029,13.3039,4.60113,2470.6,2023-4-22T04:55:37Z
2023-04-22T02:55:40Z,42.805,6.029,13.3035,4.60123,2470.624,2023-4-22T04:58:40Z
2023-04-22T02:58:43Z,42.805,6.029,13.3035,4.60143,2470.6,2023-4-22T05:01:44Z
2023-04-22T03:01:46Z,42.805,6.029,13.3039,4.60124,2470.624,2023-4-22T05:04:47Z
2023-04-22T03:04:49Z,42.805,6.029,13.3036,4.60135,2470.637,2023-4-22T05:07:50Z
2023-04-22T03:07:52Z,42.805,6.029,13.3028,4.60131,2470.637,2023-4-22T05:10:53Z
2023-04-22T03:10:55Z,42.805,6.029,13.3042,4.60131,2470.614,2023-4-22T05:13:56Z
2023-04-22T03:13:58Z,42.805,6.029,13.3030,4.60163,2470.624,2023-4-22T05:16:59Z
2023-04-22T03:17:02Z,42.805,6.029,13.3051,4.60135,2470.628,2023-4-22T05:20:02Z
2023-04-22T03:20:05Z,42.805,6.029,13.3041,4.60129,2470.624,2023-4-22T05:23:05Z
2023-04-22T03:23:08Z,42.805,6.029,13.3041,4.60127,2470.6,2023-4-22T05:26:08Z
2023-04-22T03:26:11Z,42.805,6.029,13.3040,4.60157,2470.6,2023-4-22T05:29:11Z
2023-04-22T03:29:14Z,42.805,6.029,13.3043,4.60142,2470.624,2023-4-22T05:32:14Z
2023-04-22T03:32:17Z,42.805,6.029,13.3043,4.60141,2470.6,2023-4-22T05:35:17Z
2023-04-22T03:35:20Z,42.805,6.029,13.3053,4.60151,2470.614,2023-4-22T05:38:21Z
2023-04-22T03:38:23Z,42.805,6.029,13.3032,4.60150,2470.614,2023-4-22T05:41:24Z
2023-04-22T03:41:26Z,42.805,6.029,13.3031,4.60144,2470.624,2023-4-22T05:44:27Z
2023-04-22T03:44:29Z,42.805,6.029,13.3051,4.60120,2470.614,2023-4-22T05:47:30Z
2023-04-22T03:47:32Z,42.805,6.029,13.3038,4.60122,2470.614,2023-4-22T05:50:33Z
2023-04-22T03:50:35Z,42.805,6.029,13.3033,4.60148,2470.637,2023-4-22T05:53:36Z
2023-04-22T03:53:39Z,42.805,6.029,13.3058,4.60135,2470.624,2023-4-22T05:56:39Z
2023-04-22T03:56:42Z,42.805,6.029,13.3052,4.60138,2470.624,2023-4-22T05:59:42Z
2023-04-22T03:59:45Z,42.805,6.029,13.3040,4.60150,2470.624,2023-4-22T06:02:45Z
2023-04-22T04:02:48Z,42.805,6.029,13.3046,4.60138,2470.624,2023-4-22T06:05:48Z
2023-04-22T04:05:51Z,42.805,6.029,13.3040,4.60144,2470.624,2023-4-22T06:08:51Z
2023-04-22T04:08:54Z,42.805,6.029,13.3051,4.60151,2470.591,2023-4-22T06:11:54Z
2023-04-22T04:11:57Z,42.805,6.029,13.3046,4.60157,2470.637,2023-4-22T06:14:58Z
2023-04-22T04:15:00Z,42.805,6.029,13.3045,4.60137,2470.637,2023-4-22T06:18:01Z
2023-04-22T04:18:03Z,42.805,6.029,13.3051,4.60132,2470.624,2023-4-22T06:21:04Z
2023-04-22T04:21:06Z,42.805,6.029,13.3041,4.60138,2470.637,2023-4-22T06:24:07Z
2023-04-22T04:24:09Z,42.805,6.029,13.3041,4.60137,2470.624,2023-4-22T06:27:10Z
2023-04-22T04:27:12Z,42.805,6.029,13.3051,4.60139,2470.6,2023-4-22T06:30:13Z
2023-04-22T04:30:14Z,42.805,6.029,13.3041,4.60137,2470.661,2023-4-22T06:33:15Z
2023-04-22T04:33:17Z,42.805,6.029,13.3040,4.60145,2470.637,2023-4-22T06:36:18Z
2023-04-22T04:36:20Z,42.805,6.029,13.3046,4.60133,2470.661,2023-4-22T06:39:21Z
2023-04-22T04:39:23Z,42.805,6.029,13.3046,4.60132,2470.614,2023-4-22T06:42:24Z
2023-04-22T04:42:26Z,42.805,6.029,13.3043,4.60140,2470.614,2023-4-22T06:45:27Z
2023-04-22T04:45:30Z,42.805,6.029,13.3034,4.60119,2470.684,2023-4-22T06:48:30Z
2023-04-22T04:48:33Z,42.805,6.029,13.3042,4.60137,2470.646,2023-4-22T06:51:33Z
2023-04-22T04:51:36Z,42.805,6.029,13.3043,4.60135,2470.646,2023-4-22T06:54:36Z
2023-04-22T04:54:39Z,42.805,6.029,13.3044,4.60137,2470.624,2023-4-22T06:57:39Z
2023-04-22T04:57:42Z,42.805,6.029,13.3045,4.60129,2470.684,2023-4-22T07:00:42Z
2023-04-22T05:00:45Z,42.805,6.029,13.3039,4.60132,2470.661,2023-4-22T07:03:45Z
2023-04-22T05:03:48Z,42.805,6.029,13.3029,4.60131,2470.684,2023-4-22T07:06:49Z
2023-04-22T05:06:51Z,42.805,6.029,13.3036,4.60137,2470.633,2023-4-22T07:09:52Z
2023-04-22T05:09:54Z,42.805,6.029,13.3044,4.60131,2470.646,2023-4-22T07:12:55Z
2023-04-22T05:12:57Z,42.805,6.029,13.3036,4.60121,2470.67,2023-4-22T07:15:58Z
2023-04-22T05:16:00Z,42.805,6.029,13.3044,4.60119,2470.684,2023-4-22T07:19:01Z
2023-04-22T05:19:03Z,42.805,6.029,13.3041,4.60133,2470.707,2023-4-22T07:22:04Z
2023-04-22T05:22:06Z,42.805,6.029,13.3036,4.60134,2470.67,2023-4-22T07:25:07Z
2023-04-22T05:25:10Z,42.805,6.029,13.3050,4.60131,2470.646,2023-4-22T07:28:10Z
2023-04-22T05:28:13Z,42.805,6.029,13.3045,4.60127,2470.684,2023-4-22T07:31:13Z
2023-04-22T05:31:16Z,42.805,6.029,13.3036,4.60111,2470.67,2023-4-22T07:34:16Z
2023-04-22T05:34:19Z,42.805,6.029,13.3040,4.60162,2470.67,2023-4-22T07:37:19Z
2023-04-22T05:37:22Z,42.805,6.029,13.3048,4.60137,2470.693,2023-4-22T07:40:22Z
2023-04-22T05:40:25Z,42.805,6.029,13.3039,4.60152,2470.693,2023-4-22T07:43:26Z
2023-04-22T05:43:28Z,42.805,6.029,13.3042,4.60140,2470.67,2023-4-22T07:46:29Z
2023-04-22T05:46:31Z,42.805,6.029,13.3043,4.60137,2470.67,2023-4-22T07:49:32Z
2023-04-22T05:49:34Z,42.805,6.029,13.3043,4.60135,2470.693,2023-4-22T07:52:35Z
2023-04-22T05:52:37Z,42.805,6.029,13.3043,4.60141,2470.707,2023-4-22T07:55:38Z
2023-04-22T05:55:40Z,42.805,6.029,13.3044,4.60135,2470.693,2023-4-22T07:58:41Z
2023-04-22T05:58:43Z,42.805,6.029,13.3040,4.60123,2470.717,2023-4-22T08:01:44Z
2023-04-22T06:01:47Z,42.805,6.029,13.3046,4.60133,2470.707,2023-4-22T08:04:47Z
2023-04-22T06:04:50Z,42.805,6.029,13.3041,4.60147,2470.73,2023-4-22T08:07:50Z
2023-04-22T06:07:53Z,42.805,6.029,13.3045,4.60142,2470.73,2023-4-22T08:10:53Z
2023-04-22T06:10:56Z,42.805,6.029,13.3044,4.60132,2470.754,2023-4-22T08:13:56Z
2023-04-22T06:13:59Z,42.805,6.029,13.3037,4.60141,2470.74,2023-4-22T08:16:59Z
2023-04-22T06:17:02Z,42.805,6.029,13.3039,4.60143,2470.717,2023-4-22T08:20:02Z
2023-04-22T06:20:05Z,42.805,6.029,13.3039,4.60137,2470.717,2023-4-22T08:23:06Z
2023-04-22T06:23:08Z,42.805,6.029,13.3043,4.60155,2470.73,2023-4-22T08:26:09Z
2023-04-22T06:26:11Z,42.805,6.029,13.3054,4.60154,2470.693,2023-4-22T08:29:12Z
2023-04-22T06:29:14Z,42.805,6.029,13.3039,4.60145,2470.73,2023-4-22T08:32:15Z
2023-04-22T06:32:17Z,42.805,6.029,13.3042,4.60141,2470.74,2023-4-22T08:35:18Z
2023-04-22T06:35:20Z,42.805,6.029,13.3051,4.60144,2470.74,2023-4-22T08:38:21Z
2023-04-22T06:38:24Z,42.805,6.029,13.3037,4.60149,2470.717,2023-4-22T08:41:24Z
2023-04-22T06:41:27Z,42.805,6.029,13.3053,4.60151,2470.74,2023-4-22T08:44:27Z
2023-04-22T06:44:30Z,42.805,6.029,13.3046,4.60149,2470.74,2023-4-22T08:47:30Z
2023-04-22T06:47:33Z,42.805,6.029,13.3034,4.60172,2470.754,2023-4-22T08:50:33Z
2023-04-22T06:50:36Z,42.805,6.029,13.3051,4.60164,2470.754,2023-4-22T08:53:36Z
2023-04-22T06:53:39Z,42.805,6.029,13.3069,4.60157,2470.74,2023-4-22T08:56:39Z
2023-04-22T06:56:42Z,42.805,6.029,13.3054,4.60160,2470.754,2023-4-22T08:59:43Z
2023-04-22T06:59:45Z,42.805,6.029,13.3038,4.60134,2470.74,2023-4-22T09:02:46Z
2023-04-22T07:02:48Z,42.805,6.029,13.3034,4.60166,2470.73,2023-4-22T09:05:49Z
2023-04-22T07:05:51Z,42.805,6.029,13.3058,4.60158,2470.763,2023-4-22T09:08:52Z
2023-04-22T07:08:54Z,42.805,6.029,13.3052,4.60176,2470.754,2023-4-22T09:11:55Z
2023-04-22T07:11:57Z,42.805,6.029,13.3055,4.60137,2470.754,2023-4-22T09:14:58Z
2023-04-22T07:15:00Z,42.805,6.029,13.3040,4.60160,2470.763,2023-4-22T09:18:01Z
2023-04-22T07:18:04Z,42.805,6.029,13.3043,4.60151,2470.74,2023-4-22T09:21:04Z
2023-04-22T07:21:07Z,42.805,6.029,13.3056,4.60145,2470.8,2023-4-22T09:24:07Z
2023-04-22T07:24:10Z,42.805,6.029,13.3058,4.60112,2470.787,2023-4-22T09:27:10Z
2023-04-22T07:27:13Z,42.805,6.029,13.3040,4.60129,2470.787,2023-4-22T09:30:13Z
2023-04-22T07:30:16Z,42.805,6.029,13.3046,4.60145,2470.787,2023-4-22T09:33:16Z
2023-04-22T07:33:19Z,42.805,6.029,13.3039,4.60156,2470.787,2023-4-22T09:36:20Z
2023-04-22T07:36:22Z,42.805,6.029,13.3041,4.60163,2470.75,2023-4-22T09:39:23Z
2023-04-22T07:39:25Z,42.805,6.029,13.3039,4.60173,2470.763,2023-4-22T09:42:26Z
2023-04-22T07:42:28Z,42.805,6.029,13.3048,4.60143,2470.763,2023-4-22T09:45:29Z
2023-04-22T07:45:31Z,42.805,6.029,13.3051,4.60148,2470.787,2023-4-22T09:48:32Z
2023-04-22T07:48:34Z,42.805,6.029,13.3036,4.60160,2470.787,2023-4-22T09:51:35Z
2023-04-22T07:51:37Z,42.805,6.029,13.3041,4.60128,2470.787,2023-4-22T09:54:38Z
2023-04-22T07:54:41Z,42.805,6.029,13.3043,4.60155,2470.763,2023-4-22T09:57:41Z
2023-04-22T07:57:44Z,42.805,6.029,13.3046,4.60158,2470.763,2023-4-22T10:00:44Z
2023-04-22T08:00:47Z,42.805,6.029,13.3044,4.60104,2470.787,2023-4-22T10:03:47Z
2023-04-22T08:03:50Z,42.805,6.029,13.3047,4.60155,2470.8,2023-4-22T10:06:50Z
2023-04-22T08:06:53Z,42.805,6.029,13.3041,4.60146,2470.777,2023-4-22T10:09:53Z
2023-04-22T08:09:56Z,42.805,6.029,13.3048,4.60174,2470.787,2023-4-22T10:12:57Z
2023-04-22T08:12:59Z,42.805,6.029,13.3051,4.60138,2470.763,2023-4-22T10:16:00Z
2023-04-22T08:16:02Z,42.805,6.029,13.3046,4.60147,2470.787,2023-4-22T10:19:03Z
2023-04-22T08:19:05Z,42.805,6.029,13.3054,4.60163,2470.777,2023-4-22T10:22:06Z
2023-04-22T08:22:08Z,42.805,6.029,13.3055,4.60183,2470.791,2023-4-22T10:25:09Z
2023-04-22T08:25:11Z,42.805,6.029,13.3050,4.60170,2470.8,2023-4-22T10:28:12Z
2023-04-22T08:28:14Z,42.805,6.029,13.3050,4.60172,2470.787,2023-4-22T10:31:15Z
2023-04-22T08:31:18Z,42.805,6.029,13.3048,4.60168,2470.777,2023-4-22T10:34:18Z
2023-04-22T08:34:21Z,42.805,6.029,13.3041,4.60142,2470.787,2023-4-22T10:37:21Z
2023-04-22T08:37:24Z,42.805,6.029,13.3050,4.60147,2470.81,2023-4-22T10:40:24Z
2023-04-22T08:40:27Z,42.805,6.029,13.3063,4.60144,2470.787,2023-4-22T10:43:27Z
2023-04-22T08:43:30Z,42.805,6.029,13.3071,4.60116,2470.787,2023-4-22T10:46:31Z
2023-04-22T08:46:33Z,42.805,6.029,13.3063,4.60125,2470.81,2023-4-22T10:49:34Z
2023-04-22T08:49:36Z,42.805,6.029,13.3062,4.60142,2470.777,2023-4-22T10:52:37Z
2023-04-22T08:52:39Z,42.805,6.029,13.3056,4.60132,2470.787,2023-4-22T10:55:40Z
2023-04-22T08:55:42Z,42.805,6.029,13.3051,4.60140,2470.81,2023-4-22T10:58:43Z
2023-04-22T08:58:45Z,42.805,6.029,13.3050,4.60137,2470.777,2023-4-22T11:01:46Z
2023-04-22T09:01:48Z,42.805,6.029,13.3063,4.60135,2470.777,2023-4-22T11:04:49Z
2023-04-22T09:04:52Z,42.805,6.029,13.3052,4.60116,2470.74,2023-4-22T11:07:52Z
2023-04-22T09:07:55Z,42.805,6.029,13.3048,4.60131,2470.777,2023-4-22T11:10:55Z
2023-04-22T09:10:58Z,42.805,6.029,13.3052,4.60114,2470.787,2023-4-22T11:13:58Z
2023-04-22T09:14:01Z,42.805,6.029,13.3055,4.60130,2470.763,2023-4-22T11:17:01Z
2023-04-22T09:17:04Z,42.805,6.029,13.3054,4.60119,2470.74,2023-4-22T11:20:04Z
2023-04-22T09:20:07Z,42.805,6.029,13.3055,4.60112,2470.74,2023-4-22T11:23:08Z
2023-04-22T09:23:10Z,42.805,6.029,13.3059,4.60126,2470.763,2023-4-22T11:26:11Z
2023-04-22T09:26:13Z,42.805,6.029,13.3054,4.60099,2470.777,2023-4-22T11:29:14Z
2023-04-22T09:29:16Z,42.805,6.029,13.3042,4.60120,2470.777,2023-4-22T11:32:17Z
2023-04-22T09:32:19Z,42.805,6.029,13.3048,4.60108,2470.763,2023-4-22T11:35:20Z
2023-04-22T09:35:22Z,42.805,6.029,13.3054,4.60104,2470.777,2023-4-22T11:38:23Z
2023-04-22T09:38:25Z,42.805,6.029,13.3045,4.60107,2470.763,2023-4-22T11:41:26Z
2023-04-22T09:41:29Z,42.805,6.029,13.3063,4.60119,2470.763,2023-4-22T11:44:29Z
2023-04-22T09:44:32Z,42.805,6.029,13.3046,4.60119,2470.754,2023-4-22T11:47:32Z
2023-04-22T09:47:35Z,42.805,6.029,13.3044,4.60109,2470.777,2023-4-22T11:50:35Z
2023-04-22T09:50:38Z,42.805,6.029,13.3051,4.60100,2470.74,2023-4-22T11:53:38Z
2023-04-22T09:53:41Z,42.805,6.029,13.3044,4.60095,2470.777,2023-4-22T11:56:42Z
2023-04-22T09:56:44Z,42.805,6.029,13.3039,4.60110,2470.763,2023-4-22T11:59:45Z
2023-04-22T09:59:47Z,42.805,6.029,13.3032,4.60122,2470.754,2023-4-22T12:02:48Z
2023-04-22T10:02:50Z,42.805,6.029,13.3061,4.60118,2470.787,2023-4-22T12:05:51Z
2023-04-22T10:05:53Z,42.805,6.029,13.3041,4.60114,2470.75,2023-4-22T12:08:54Z
2023-04-22T10:08:56Z,42.805,6.029,13.3034,4.60117,2470.717,2023-4-22T12:11:57Z
2023-04-22T10:11:59Z,42.805,6.029,13.3039,4.60133,2470.763,2023-4-22T12:15:00Z
2023-04-22T10:15:02Z,42.805,6.029,13.3041,4.60155,2470.73,2023-4-22T12:18:03Z
2023-04-22T10:18:06Z,42.805,6.029,13.3036,4.60157,2470.754,2023-4-22T12:21:06Z
2023-04-22T10:21:09Z,42.805,6.029,13.3044,4.60122,2470.74,2023-4-22T12:24:09Z
2023-04-22T10:24:12Z,42.805,6.029,13.3054,4.60140,2470.717,2023-4-22T12:27:12Z
2023-04-22T10:27:15Z,42.805,6.029,13.3056,4.60138,2470.73,2023-4-22T12:30:15Z
2023-04-22T10:30:19Z,42.805,6.029,13.3041,4.60160,2470.73,2023-4-22T12:33:19Z
2023-04-22T10:33:22Z,42.805,6.029,13.3039,4.60144,2470.73,2023-4-22T12:36:22Z
2023-04-22T10:36:25Z,42.805,6.029,13.3048,4.60139,2470.717,2023-4-22T12:39:25Z
2023-04-22T10:39:28Z,42.805,6.029,13.3046,4.60126,2470.693,2023-4-22T12:42:29Z
2023-04-22T10:42:31Z,42.805,6.029,13.3050,4.60134,2470.754,2023-4-22T12:45:32Z
2023-04-22T10:45:34Z,42.805,6.029,13.3043,4.60125,2470.73,2023-4-22T12:48:35Z
2023-04-22T10:48:37Z,42.805,6.029,13.3049,4.60124,2470.717,2023-4-22T12:51:38Z
2023-04-22T10:51:40Z,42.805,6.029,13.3053,4.60097,2470.73,2023-4-22T12:54:41Z
2023-04-22T10:54:43Z,42.805,6.029,13.3047,4.60119,2470.67,2023-4-22T12:57:44Z
2023-04-22T10:57:46Z,42.805,6.029,13.3059,4.60137,2470.707,2023-4-22T13:00:47Z
2023-04-22T11:00:49Z,42.805,6.029,13.3043,4.60111,2470.684,2023-4-22T13:03:50Z
2023-04-22T11:03:53Z,42.805,6.029,13.3037,4.60119,2470.693,2023-4-22T13:06:53Z
2023-04-22T11:06:56Z,42.805,6.029,13.3048,4.60089,2470.717,2023-4-22T13:09:56Z
2023-04-22T11:09:59Z,42.805,6.029,13.3048,4.60103,2470.693,2023-4-22T13:12:59Z
2023-04-22T11:13:02Z,42.805,6.029,13.3050,4.60130,2470.707,2023-4-22T13:16:02Z
2023-04-22T11:16:05Z,42.805,6.029,13.3044,4.60149,2470.707,2023-4-22T13:19:06Z
2023-04-22T11:19:08Z,42.805,6.029,13.3043,4.60135,2470.693,2023-4-22T13:22:09Z
2023-04-22T11:22:11Z,42.805,6.029,13.3043,4.60119,2470.707,2023-4-22T13:25:12Z
2023-04-22T11:25:14Z,42.805,6.029,13.3064,4.60124,2470.693,2023-4-22T13:28:15Z
2023-04-22T11:28:17Z,42.805,6.029,13.3048,4.60116,2470.693,2023-4-22T13:31:18Z
2023-04-22T11:31:20Z,42.805,6.029,13.3043,4.60143,2470.646,2023-4-22T13:34:21Z
2023-04-22T11:34:23Z,42.805,6.029,13.3056,4.60132,2470.633,2023-4-22T13:37:24Z
2023-04-22T11:37:27Z,42.805,6.029,13.3043,4.60112,2470.646,2023-4-22T13:40:27Z
2023-04-22T11:40:30Z,42.805,6.029,13.3052,4.60102,2470.646,2023-4-22T13:43:30Z
2023-04-22T11:43:33Z,42.805,6.029,13.3048,4.60101,2470.661,2023-4-22T13:46:33Z
2023-04-22T11:46:36Z,42.805,6.029,13.3051,4.60122,2470.646,2023-4-22T13:49:36Z
2023-04-22T11:49:39Z,42.805,6.029,13.3056,4.60126,2470.646,2023-4-22T13:52:40Z
2023-04-22T11:52:42Z,42.805,6.029,13.3044,4.60103,2470.661,2023-4-22T13:55:43Z
2023-04-22T11:55:45Z,42.805,6.029,13.3050,4.60094,2470.661,2023-4-22T13:58:46Z
2023-04-22T11:58:48Z,42.805,6.029,13.3041,4.60092,2470.67,2023-4-22T14:01:49Z
2023-04-22T12:01:51Z,42.805,6.029,13.3049,4.60123,2470.646,2023-4-22T14:04:52Z
2023-04-22T12:04:54Z,42.805,6.029,13.3041,4.60137,2470.661,2023-4-22T14:07:55Z
2023-04-22T12:07:57Z,42.805,6.029,13.3042,4.60104,2470.646,2023-4-22T14:10:58Z
2023-04-22T12:11:00Z,42.805,6.029,13.3051,4.60096,2470.646,2023-4-22T14:14:01Z
2023-04-22T12:14:04Z,42.805,6.029,13.3052,4.60079,2470.646,2023-4-22T14:17:04Z
2023-04-22T12:17:07Z,42.805,6.029,13.3036,4.60098,2470.661,2023-4-22T14:20:07Z
2023-04-22T12:20:10Z,42.805,6.029,13.3041,4.60097,2470.661,2023-4-22T14:23:10Z
2023-04-22T12:23:13Z,42.805,6.029,13.3029,4.60075,2470.67,2023-4-22T14:26:13Z
2023-04-22T12:26:16Z,42.805,6.029,13.3019,4.60073,2470.624,2023-4-22T14:29:17Z
2023-04-22T12:29:19Z,42.805,6.029,13.3019,4.60075,2470.646,2023-4-22T14:32:20Z
2023-04-22T12:32:22Z,42.805,6.029,13.3029,4.60091,2470.624,2023-4-22T14:35:23Z
2023-04-22T12:35:25Z,42.805,6.029,13.3043,4.60095,2470.646,2023-4-22T14:38:26Z
2023-04-22T12:38:28Z,42.805,6.029,13.3029,4.60086,2470.624,2023-4-22T14:41:29Z
2023-04-22T12:41:31Z,42.805,6.029,13.3048,4.60112,2470.661,2023-4-22T14:44:32Z
2023-04-22T12:44:34Z,42.805,6.029,13.3048,4.60099,2470.614,2023-4-22T14:47:35Z
2023-04-22T12:47:38Z,42.805,6.029,13.3049,4.60120,2470.637,2023-4-22T14:50:38Z
2023-04-22T12:50:41Z,42.805,6.029,13.3055,4.60084,2470.646,2023-4-22T14:53:41Z
2023-04-22T12:53:44Z,42.805,6.029,13.3021,4.60080,2470.6,2023-4-22T14:56:44Z
2023-04-22T12:56:47Z,42.805,6.029,13.3031,4.60079,2470.624,2023-4-22T14:59:47Z
2023-04-22T12:59:50Z,42.805,6.029,13.3020,4.60079,2470.624,2023-4-22T15:02:51Z
2023-04-22T13:02:53Z,42.805,6.029,13.3024,4.60074,2470.624,2023-4-22T15:05:54Z
2023-04-22T13:05:56Z,42.805,6.029,13.3021,4.60072,2470.624,2023-4-22T15:08:57Z
2023-04-22T13:08:59Z,42.805,6.029,13.3016,4.60074,2470.624,2023-4-22T15:12:00Z
2023-04-22T13:12:02Z,42.805,6.029,13.3027,4.60077,2470.591,2023-4-22T15:15:03Z
2023-04-22T13:15:05Z,42.805,6.029,13.3033,4.60109,2470.646,2023-4-22T15:18:06Z
2023-04-22T13:18:08Z,42.805,6.029,13.3035,4.60096,2470.637,2023-4-22T15:21:09Z
2023-04-22T13:21:11Z,42.805,6.029,13.3018,4.60074,2470.624,2023-4-22T15:24:12Z
2023-04-22T13:24:15Z,42.805,6.029,13.3024,4.60078,2470.614,2023-4-22T15:27:15Z
2023-04-22T13:27:18Z,42.805,6.029,13.3027,4.60079,2470.661,2023-4-22T15:30:18Z
2023-04-22T13:30:21Z,42.805,6.029,13.3024,4.60075,2470.624,2023-4-22T15:33:21Z
2023-04-22T13:33:24Z,42.805,6.029,13.3021,4.60075,2470.6,2023-4-22T15:36:25Z
2023-04-22T13:36:27Z,42.805,6.029,13.3021,4.60077,2470.614,2023-4-22T15:39:28Z
2023-04-22T13:39:30Z,42.805,6.029,13.3021,4.60077,2470.624,2023-4-22T15:42:31Z
2023-04-22T13:42:33Z,42.805,6.029,13.3020,4.60076,2470.646,2023-4-22T15:45:34Z
2023-04-22T13:45:36Z,42.805,6.029,13.3027,4.60074,2470.6,2023-4-22T15:48:37Z
2023-04-22T13:48:39Z,42.805,6.029,13.3021,4.60077,2470.614,2023-4-22T15:51:40Z
2023-04-22T13:51:42Z,42.805,6.029,13.3021,4.60078,2470.614,2023-4-22T15:54:43Z
2023-04-22T13:54:45Z,42.805,6.029,13.3021,4.60075,2470.624,2023-4-22T15:57:46Z
2023-04-22T13:57:48Z,42.805,6.029,13.3031,4.60077,2470.577,2023-4-22T16:00:49Z
2023-04-22T14:00:52Z,42.805,6.029,13.3032,4.60099,2470.624,2023-4-22T16:03:52Z
2023-04-22T14:03:55Z,42.805,6.029,13.3023,4.60078,2470.6,2023-4-22T16:06:55Z
2023-04-22T14:06:58Z,42.805,6.029,13.3025,4.60074,2470.591,2023-4-22T16:09:58Z
2023-04-22T14:10:01Z,42.805,6.029,13.3024,4.60079,2470.6,2023-4-22T16:13:02Z
2023-04-22T14:13:04Z,42.805,6.029,13.3022,4.60075,2470.6,2023-4-22T16:16:05Z
2023-04-22T14:16:07Z,42.805,6.029,13.3021,4.60076,2470.637,2023-4-22T16:19:08Z
2023-04-22T14:19:10Z,42.805,6.029,13.3024,4.60076,2470.637,2023-4-22T16:22:11Z
2023-04-22T14:22:13Z,42.805,6.029,13.3021,4.60075,2470.567,2023-4-22T16:25:14Z
2023-04-22T14:25:16Z,42.805,6.029,13.3023,4.60080,2470.6,2023-4-22T16:28:17Z
2023-04-22T14:28:19Z,42.805,6.029,13.3027,4.60078,2470.591,2023-4-22T16:31:20Z
2023-04-22T14:31:22Z,42.805,6.029,13.3021,4.60078,2470.577,2023-4-22T16:34:23Z
2023-04-22T14:34:26Z,42.805,6.029,13.3024,4.60074,2470.6,2023-4-22T16:37:26Z
2023-04-22T14:37:29Z,42.805,6.029,13.3022,4.60076,2470.586,2023-4-22T16:40:29Z
2023-04-22T14:40:32Z,42.805,6.029,13.3024,4.60075,2470.577,2023-4-22T16:43:32Z
2023-04-22T14:43:35Z,42.805,6.029,13.3020,4.60077,2470.614,2023-4-22T16:46:36Z
2023-04-22T14:46:38Z,42.805,6.029,13.3019,4.60074,2470.577,2023-4-22T16:49:39Z
2023-04-22T14:49:41Z,42.805,6.029,13.3024,4.60074,2470.577,2023-4-22T16:52:42Z
2023-04-22T14:52:44Z,42.805,6.029,13.3024,4.60074,2470.577,2023-4-22T16:55:45Z
2023-04-22T14:55:47Z,42.805,6.029,13.3020,4.60075,2470.614,2023-4-22T16:58:48Z
2023-04-22T14:58:50Z,42.805,6.029,13.3024,4.60076,2470.614,2023-4-22T17:01:51Z
2023-04-22T15:01:53Z,42.805,6.029,13.3023,4.60080,2470.624,2023-4-22T17:04:54Z
2023-04-22T15:04:56Z,42.805,6.029,13.3023,4.60078,2470.577,2023-4-22T17:07:57Z
2023-04-22T15:07:59Z,42.805,6.029,13.3021,4.60079,2470.577,2023-4-22T17:11:00Z
2023-04-22T15:11:03Z,42.805,6.029,13.3025,4.60083,2470.6,2023-4-22T17:14:03Z
2023-04-22T15:14:06Z,42.805,6.029,13.3024,4.60075,2470.6,2023-4-22T17:17:06Z